Погода в Тюльгане

Россия / Оренбургская область     52°20′27″N   56°09′25″E
темп.,
°C
ветер,
м/с
пор.,
м/с
влажн.,
%
обл.,
%
осадки,
мм/ч
давл.,
гПа
погр.,
м
8 марта, пн
пн823:00−18зюз23990 0.0 101520
02:00−16ююз349794 0.1 101563
05:00−16ю489897 0.3 1014177
08:00−12ю81595100 0.3 1012497
11:00−8ююз111694100 1.4 1011879
14:00−5юз121894100 1.5 10101098
17:00−4юз111795100 3.2 10101132
20:00−4юз91596100 1.5 1010857
9 марта, вт
вт923:00−4юз101696100 2.7 1010814
02:00−5ююз101795100 0.9 1009760
05:00−5юз101794100 1.6 1010706
08:00−5юз81395100 0.6 1011576
11:00−4зюз5895100 1.2 1012509
14:00−3ююз3389100 0.3 1012449
17:00−3ююв4796100 0.6 1011477
20:00−4ю51097100 0.9 1009444
10 марта, ср
ср1023:00−3ю71297100 2.6 1007530
02:00−3ю71296100 1.4 1003528
05:00−4ю81496100 3.6 1001665
08:00−10зюз8139499 0.4 1002521
11:00−10зюз9129299 0.6 1005755
14:00−11з91292100 0.3 1007620
17:00−13з81293100 0.4 1009605
20:00−14з71294100 0.4 1011530
11 марта, чт
чт1123:00−15зсз6109599 0.8 1012408
02:00−20зсз589993 0.1 1013142
05:00−22зсз589993 0.1 1014170
08:00−21зсз5997100 0.1 1016329
11:00−20сз6893100 0.1 1018529
14:00−18сз6891100 0.1 1019611
17:00−17зсз6988100 0.2 1020613
20:00−23зсз589791 0.0 1023139
12 марта, пт
пт1223:00−24зсз3310087 0.0 102637
02:00−26з22100100 0.0 102719
05:00−26з22100100 0.1 102719
08:00−25з12100100 0.1 102920
11:00−20з3497100 0.1 1029243
14:00−17зсз3594100 0.0 1030281
17:00−15сз479499 0.0 1030300
20:00−18зсз239957 0.0 103120